Vorticity
nan nan nan nan nan nan nan nan nan nan nan nan nan nan nan nan nan nan nan nan nan nan nan nan nan nan nan nan nan nan nan nan nan nan nan nan nan nan nan nan nan nan nan nan nan nan nan nan nan
nan -1 2 6 6 5 8 7 9 11 9 7 6 4 3 7 14 12 9 9 6 4 6 10 10 6 4 4 5 5 5 5 5 5 5 4 4 4 4 4 4 4 4 5 5 5 6 6 nan
nan 2 5 6 5 4 5 10 16 10 4 3 6 5 8 11 10 6 9 9 5 4 7 12 9 6 4 4 5 5 5 4 4 5 5 4 4 4 4 4 4 4 4 5 6 6 5 6 nan
nan 7 5 3 7 8 10 11 6 -0 2 12 6 3 12 11 8 12 9 4 4 5 8 11 7 5 4 4 4 4 4 4 4 5 5 4 4 4 5 4 4 4 4 5 6 6 7 7 nan
nan 7 6 5 7 10 13 10 2 4 7 9 5 8 8 9 14 11 4 4 3 5 8 9 8 5 5 4 3 3 3 4 4 4 4 4 4 4 5 4 4 3 4 5 6 6 7 7 nan
nan 8 6 6 7 10 11 8 4 8 10 5 6 4 9 16 5 3 5 5 6 5 7 10 8 5 4 4 3 3 4 4 4 4 4 4 3 4 4 4 4 4 5 6 6 6 6 7 nan
nan 7 6 7 7 7 10 6 10 6 3 8 2 1 12 8 5 6 5 6 6 5 6 8 8 9 6 3 3 3 4 4 4 3 4 4 4 4 3 3 4 4 5 6 7 6 6 7 nan
nan 7 8 9 8 6 11 8 7 1 6 8 5 8 12 9 6 5 5 6 6 5 5 7 7 7 6 10 8 3 3 4 4 4 3 4 5 4 4 4 4 5 5 5 6 7 7 6 nan
nan 6 9 11 8 9 7 10 5 7 9 -0 8 16 17 11 4 3 4 5 6 5 5 6 7 7 7 8 9 9 5 5 5 5 4 3 5 6 6 8 6 6 6 6 5 7 7 10 nan
nan 5 10 4 13 17 10 5 1 7 -0 1 16 18 14 6 4 4 4 5 6 5 5 4 6 7 6 6 7 8 7 7 8 7 7 8 7 6 8 8 9 9 7 7 5 6 7 8 nan
nan 0 5 -1 9 21 9 -1 5 6 3 13 14 7 6 4 3 4 5 7 6 4 5 6 5 6 6 5 6 6 8 7 8 8 7 6 6 7 8 8 8 7 8 7 7 7 9 7 nan
nan 5 -1 5 5 9 8 1 11 2 7 18 13 5 3 4 3 4 6 6 6 7 6 5 6 5 4 6 7 7 7 7 7 9 8 7 7 7 8 7 7 7 9 8 7 6 6 8 nan
nan 3 7 8 0 11 16 4 11 -0 9 15 9 7 4 5 5 5 6 6 7 6 6 6 6 5 5 4 6 7 7 7 8 8 7 6 7 8 7 7 8 7 8 8 8 8 7 6 nan
nan 10 2 9 14 18 8 3 4 15 12 11 7 6 5 5 4 4 7 6 6 7 7 7 6 6 6 5 6 6 6 7 7 7 9 7 7 7 7 8 8 7 8 9 8 9 7 8 nan
nan 15 17 13 18 16 12 8 3 14 11 6 5 5 6 5 6 5 6 6 5 7 8 8 6 5 6 5 5 7 7 7 7 9 9 8 7 8 7 7 8 9 10 9 6 7 8 8 nan
nan 9 8 11 14 21 16 8 15 12 7 6 5 5 6 8 6 5 6 7 5 7 8 6 8 7 5 5 6 6 8 8 7 8 10 10 9 7 7 8 8 9 9 7 7 7 8 7 nan
nan 10 4 11 12 11 5 14 23 11 6 6 6 6 5 7 6 8 7 7 8 7 8 7 7 7 6 5 6 9 8 8 9 8 9 10 8 7 7 7 8 8 7 7 7 8 8 6 nan
nan 7 8 10 7 8 6 18 16 8 7 6 6 5 6 8 7 7 6 7 7 8 8 8 7 8 6 6 6 7 9 10 9 8 9 9 8 8 7 7 9 8 7 6 8 8 8 8 nan
nan 6 6 6 7 16 8 11 12 6 2 8 9 7 7 8 8 7 7 7 7 8 8 8 6 5 4 6 7 7 8 8 8 10 10 7 8 8 7 7 9 9 8 8 7 7 7 7 nan
nan 6 5 6 13 6 17 15 15 9 9 6 4 6 6 6 8 11 10 7 8 7 5 6 7 6 5 4 6 8 9 9 10 10 10 8 8 7 8 8 8 7 7 9 7 7 8 9 nan
nan 10 9 3 9 8 10 14 22 8 5 10 9 8 9 10 5 8 12 8 6 7 8 7 7 6 6 4 2 3 7 9 9 10 10 11 9 8 8 7 8 7 8 8 8 8 8 8 nan
nan 8 8 10 8 11 4 11 12 19 8 5 7 9 7 7 6 6 10 11 8 8 8 8 7 6 7 7 6 4 2 4 7 9 9 11 11 10 9 8 8 8 8 9 8 8 7 8 nan
nan 9 12 11 6 7 0 10 14 18 9 8 9 8 7 8 8 7 7 10 7 7 8 9 9 7 7 7 5 5 5 5 7 10 9 8 10 11 9 9 8 8 8 10 9 7 7 7 nan
nan 7 7 11 12 8 12 6 9 16 13 5 9 11 8 8 8 8 6 7 10 8 9 10 9 8 7 8 8 7 4 3 4 6 8 9 10 10 9 9 8 8 9 9 9 9 8 7 nan
nan 8 8 9 11 10 16 6 11 11 19 12 7 7 11 9 8 7 8 7 9 10 7 9 9 9 8 8 8 7 7 7 5 4 6 7 7 10 11 8 7 8 10 9 9 9 8 8 nan
nan 4 7 9 8 13 11 7 16 11 10 19 15 11 11 10 10 10 8 7 7 9 8 8 8 8 9 8 8 8 6 5 9 8 7 8 8 11 11 8 8 8 8 8 7 7 9 9 nan
nan 12 5 3 4 9 7 6 15 18 8 13 15 19 16 12 10 9 9 9 8 9 11 8 7 8 9 7 7 9 8 7 7 8 7 8 8 10 12 11 8 8 8 8 7 8 9 8 nan
nan 3 4 13 15 1 8 10 14 13 9 8 12 13 13 13 10 10 9 9 10 10 10 9 10 9 8 7 6 8 9 7 7 8 9 7 9 10 11 10 9 9 8 9 7 6 9 8 nan
nan 3 9 12 9 8 5 12 15 8 12 12 10 12 10 11 11 8 9 12 11 10 11 10 10 9 7 8 8 7 8 8 8 7 9 8 8 10 10 10 8 9 8 7 7 7 9 9 nan
nan nan nan nan nan nan nan nan nan nan nan nan nan nan nan nan nan nan nan nan nan nan nan nan nan nan nan nan nan nan nan nan nan nan nan nan nan nan nan nan nan nan nan nan nan nan nan nan nan
CAPE
351 283 209 123 118 3 57 118 111 4 12 6 2 0 0 0 0 0 0 10 32 46 198 648 1198 1245 1666 1756 2390 2436 2245 2156 2209 2031 1877 1887 1900 1944 1892 1838 1803 1663 1622 1628 1867 1763 1755 1637 1441
293 315 307 14 47 14 30 55 96 23 8 0 0 0 0 2 5 15 19 9 29 112 189 576 1357 1568 1730 1853 2394 2468 2115 2179 1992 2016 2005 1969 2004 1882 1778 1747 1566 1557 1626 1638 1635 1751 1739 1678 1577
586 263 101 23 15 22 2 80 56 27 11 51 3 8 0 3 8 5 0 0 36 180 346 721 1327 1572 1740 1831 2116 2466 2218 1957 1852 1854 1943 1982 1879 1727 1597 1525 1586 1628 1718 1739 1700 1659 1719 1779 1534
44 289 534 224 254 123 122 132 141 155 59 15 4 14 40 1 1 5 5 95 118 289 500 1028 1464 1560 1754 1736 1817 1795 1856 1919 1862 1714 1837 1904 1713 1511 1434 1463 1590 1723 1876 1672 1613 1592 1681 1702 1500
334 272 119 213 138 97 255 106 226 153 95 36 46 57 29 50 19 6 106 111 139 375 568 1067 1758 2079 1959 1698 1617 1545 1585 1984 2029 1842 1799 1851 1570 1376 1378 1386 1486 1615 1827 1811 1492 1626 1463 1579 1434
239 119 68 47 30 186 314 315 251 213 149 60 37 60 104 125 86 194 115 78 153 440 764 1110 1604 1714 1828 1702 1656 1587 1543 1901 2063 1866 1798 1834 1657 1396 1395 1364 1390 1519 1764 1722 1567 1515 1555 1315 1211
4 5 1 23 21 334 374 373 240 225 156 95 49 80 168 162 204 221 125 212 219 816 1023 1097 1037 1229 1611 1720 1671 1562 1549 1887 1966 1997 1867 1765 1786 1511 1373 1346 1381 1456 1438 1577 1617 1387 1418 1364 1253
11 0 0 5 73 155 418 362 203 189 241 141 76 88 149 226 274 141 230 341 412 1000 1126 1100 920 937 1301 1372 1705 1547 1516 1683 1932 1936 1937 1883 1733 1491 1468 1465 1482 1527 1389 1340 1467 1361 1474 1411 1630
5 0 1 27 11 91 403 427 224 321 180 128 225 119 125 318 203 231 354 355 635 911 984 1006 1013 974 1424 1580 1482 1685 1580 1645 1788 1861 1885 2158 1319 1157 1519 1647 1781 1839 1581 1505 1506 1491 1515 1761 1679
0 0 0 0 0 99 420 414 309 369 156 410 218 183 288 374 299 279 360 328 507 631 930 1020 930 1190 1301 1775 1366 1427 1178 1228 1516 1543 1337 1575 942 706 1228 1702 1967 1665 1686 1727 1860 1613 1791 1267 940
10 167 17 16 43 198 466 469 477 415 263 429 163 258 297 282 349 308 330 260 354 513 793 977 947 1119 1137 1345 947 1051 947 1010 956 874 805 747 898 513 973 758 1207 847 1390 738 935 1130 658 1200 678
51 5 22 31 17 25 431 478 513 375 296 447 181 234 284 292 360 307 275 292 265 449 549 825 879 998 868 643 891 959 853 632 479 255 270 389 437 469 413 515 604 404 574 889 901 943 893 699 669
68 17 1 24 9 0 368 448 600 550 476 428 335 289 271 265 299 327 260 356 368 477 498 646 740 785 856 447 765 631 605 532 273 112 104 366 454 392 175 452 615 424 569 1022 781 949 858 566 862
0 0 0 0 0 3 364 506 515 670 656 636 500 377 312 295 327 445 325 460 464 531 588 631 613 597 629 419 235 315 337 355 189 120 154 548 549 504 261 301 808 892 1121 975 1071 936 579 738 826
0 0 0 0 0 0 59 262 418 442 650 810 645 534 447 381 396 486 456 560 508 553 660 636 600 569 536 432 353 144 157 336 356 360 353 504 628 443 272 454 533 727 784 1177 922 492 469 336 12
0 0 0 0 0 0 0 0 283 388 604 838 790 729 636 509 458 459 499 510 501 515 665 610 775 673 537 529 306 265 185 494 595 356 674 664 631 377 577 589 562 664 858 803 311 318 126 0 0
0 0 0 0 0 0 0 0 339 443 630 767 826 814 759 625 567 401 440 551 529 388 472 547 685 635 589 443 303 351 654 472 353 295 571 736 705 715 738 838 859 641 496 573 512 122 22 0 0
0 0 0 0 0 0 0 0 421 431 550 798 783 799 844 732 687 518 365 487 380 318 301 431 579 488 659 255 379 409 315 416 223 410 672 707 863 1175 734 598 804 755 552 501 80 22 9 0 0
0 0 0 0 0 0 0 0 422 379 326 379 755 821 862 735 642 546 395 379 348 287 302 360 391 345 541 440 642 539 353 338 603 629 623 793 988 1155 875 578 740 561 423 419 52 0 0 0 0
0 0 0 0 0 0 0 0 0 393 391 339 364 501 640 702 459 152 353 268 264 259 336 417 375 271 480 679 701 787 481 381 493 638 481 446 1002 1067 870 508 710 582 369 248 11 0 0 0 0
0 0 0 0 0 0 0 0 0 288 447 448 382 295 260 255 184 42 122 302 223 122 331 471 445 420 450 683 637 581 554 634 746 627 642 651 495 987 989 485 525 575 430 289 0 0 0 0 0
0 0 0 0 0 0 0 0 0 24 361 353 316 306 242 189 173 93 73 286 248 149 235 493 480 478 377 592 818 874 726 645 664 781 784 1136 1297 1004 868 620 459 500 410 68 0 0 0 0 0
0 0 0 0 0 0 0 0 0 0 0 0 75 141 154 164 162 126 38 194 281 272 378 553 512 503 410 317 700 679 585 643 499 519 841 823 984 982 970 678 490 247 165 0 0 0 0 0 0
0 0 0 0 0 0 0 0 0 0 0 0 0 9 45 56 92 102 79 45 224 320 549 550 517 558 510 387 574 696 721 559 461 388 666 730 830 961 927 731 425 17 8 0 0 0 0 0 0
0 0 0 0 0 0 0 0 0 0 0 0 0 0 2 4 16 28 8 28 34 201 544 594 529 760 729 661 706 829 786 539 438 360 462 606 817 717 853 704 455 6 0 0 0 0 0 0 0
0 0 0 0 0 0 0 0 0 0 0 0 0 0 0 0 4 3 2 6 32 89 347 510 521 828 993 947 851 833 803 620 552 240 351 605 862 759 847 737 494 16 0 0 0 0 0 0 0
0 0 0 0 0 0 0 0 0 0 0 0 0 0 0 0 0 0 2 2 28 25 168 437 449 646 1128 1122 949 858 775 697 574 367 354 582 730 778 462 765 452 29 0 0 0 0 0 0 0
0 0 0 0 0 0 0 0 0 0 0 0 0 0 0 0 0 0 0 2 4 19 69 394 512 506 806 1174 1076 896 833 800 683 464 544 598 583 509 329 540 328 32 0 0 0 0 0 0 0
0 0 0 0 0 0 0 0 0 0 0 0 0 0 0 0 0 0 7 10 14 19 28 302 568 575 605 916 1053 1081 1037 991 832 734 697 670 334 122 261 435 197 47 0 0 0 0 0 0 0
0 0 0 0 0 0 0 0 0 0 0 0 0 0 0 0 0 0 2 12 23 49 43 339 653 692 673 923 945 902 933 1070 1249 1115 946 855 502 73 110 299 197 78 23 0 26 3 6 0 0